Time,TemperatureF,DewpointF,PressureIn,WindDirection,WindDirectionDegrees,WindSpeedMPH,WindSpeedGustMPH,Humidity,HourlyPrecipIn,Conditions,Clouds,dailyrainin,SoftwareType,DateUTC
2015-07-29 00:04:00,84.3,77.0,29.97,SW,228,3.0,9.0,78,0.00,,,0.00,weatherlink.com 1.10,2015-07-29 04:04:00,
2015-07-29 00:34:00,83.6,77.0,29.97,WSW,241,7.0,8.0,80,0.00,,,0.00,weatherlink.com 1.10,2015-07-29 04:34:00,
2015-07-29 00:49:00,83.3,77.0,29.96,SW,226,6.0,10.0,81,0.00,,,0.00,weatherlink.com 1.10,2015-07-29 04:49:00,
2015-07-29 01:04:00,82.9,77.0,29.96,SW,229,4.0,9.0,82,0.00,,,0.00,weatherlink.com 1.10,2015-07-29 05:04:00,
2015-07-29 01:19:00,82.6,77.0,29.96,SW,234,2.0,7.0,83,0.00,,,0.00,weatherlink.com 1.10,2015-07-29 05:19:00,
2015-07-29 01:34:00,82.3,77.0,29.95,SW,233,3.0,9.0,83,0.00,,,0.00,weatherlink.com 1.10,2015-07-29 05:34:00,
2015-07-29 01:49:00,82.2,77.0,29.95,SW,218,3.0,9.0,84,0.00,,,0.00,weatherlink.com 1.10,2015-07-29 05:49:00,
2015-07-29 02:04:00,82.1,77.0,29.94,SW,236,4.0,9.0,84,0.00,,,0.00,weatherlink.com 1.10,2015-07-29 06:04:00,
2015-07-29 02:19:00,82.0,77.0,29.93,SW,228,6.0,11.0,84,0.00,,,0.00,weatherlink.com 1.10,2015-07-29 06:19:00,
2015-07-29 02:34:00,82.0,77.0,29.93,SW,233,3.0,10.0,84,0.00,,,0.00,weatherlink.com 1.10,2015-07-29 06:34:00,
2015-07-29 02:49:00,81.9,77.0,29.94,SW,232,4.0,7.0,84,0.00,,,0.00,weatherlink.com 1.10,2015-07-29 06:49:00,
2015-07-29 03:04:00,81.8,77.0,29.94,SW,233,3.0,8.0,85,0.00,,,0.00,weatherlink.com 1.10,2015-07-29 07:04:00,
2015-07-29 03:19:00,81.7,77.0,29.94,SW,232,4.0,6.0,85,0.00,,,0.00,weatherlink.com 1.10,2015-07-29 07:19:00,
2015-07-29 03:34:00,81.6,77.0,29.94,SW,233,7.0,7.0,85,0.00,,,0.00,weatherlink.com 1.10,2015-07-29 07:34:00,
2015-07-29 03:49:00,81.5,77.0,29.95,SW,233,3.0,5.0,85,0.00,,,0.00,weatherlink.com 1.10,2015-07-29 07:49:00,
2015-07-29 04:04:00,81.4,77.0,29.94,SW,233,4.0,6.0,86,0.00,,,0.00,weatherlink.com 1.10,2015-07-29 08:04:00,
2015-07-29 04:19:00,81.2,77.0,29.95,SW,233,3.0,7.0,86,0.00,,,0.00,weatherlink.com 1.10,2015-07-29 08:19:00,
2015-07-29 04:34:00,81.0,77.0,29.94,SW,233,4.0,4.0,87,0.00,,,0.00,weatherlink.com 1.10,2015-07-29 08:34:00,
2015-07-29 04:49:00,81.0,77.0,29.94,SW,233,5.0,6.0,87,0.00,,,0.00,weatherlink.com 1.10,2015-07-29 08:49:00,
2015-07-29 05:04:00,81.0,77.0,29.95,SW,233,4.0,5.0,87,0.00,,,0.00,weatherlink.com 1.10,2015-07-29 09:04:00,
2015-07-29 05:35:00,80.6,77.0,29.95,SW,233,0.0,4.0,88,0.00,,,0.00,weatherlink.com 1.10,2015-07-29 09:35:00,
2015-07-29 05:50:00,80.4,77.0,29.95,SW,233,3.0,5.0,89,0.00,,,0.00,weatherlink.com 1.10,2015-07-29 09:50:00,
2015-07-29 06:05:00,80.4,77.0,29.95,SW,233,4.0,5.0,89,0.00,,,0.00,weatherlink.com 1.10,2015-07-29 10:05:00,
2015-07-29 06:20:00,80.4,77.0,29.95,SW,233,2.0,5.0,89,0.00,,,0.00,weatherlink.com 1.10,2015-07-29 10:20:00,
2015-07-29 06:35:00,80.3,77.0,29.95,SW,233,5.0,5.0,89,0.00,,,0.00,weatherlink.com 1.10,2015-07-29 10:35:00,
2015-07-29 06:50:00,80.2,77.0,29.95,SW,233,5.0,6.0,90,0.00,,,0.00,weatherlink.com 1.10,2015-07-29 10:50:00,
2015-07-29 07:05:00,80.2,77.0,29.96,SW,233,5.0,6.0,90,0.00,,,0.00,weatherlink.com 1.10,2015-07-29 11:05:00,
2015-07-29 07:20:00,80.3,77.0,29.96,SW,233,4.0,7.0,90,0.00,,,0.00,weatherlink.com 1.10,2015-07-29 11:20:00,
2015-07-29 07:35:00,80.7,78.0,29.96,SW,229,3.0,8.0,90,0.00,,,0.00,weatherlink.com 1.10,2015-07-29 11:35:00,
2015-07-29 07:50:00,81.0,78.0,29.96,SW,228,3.0,7.0,89,0.00,,,0.00,weatherlink.com 1.10,2015-07-29 11:50:00,
2015-07-29 08:05:00,81.3,78.0,29.97,SW,226,2.0,6.0,89,0.00,,,0.00,weatherlink.com 1.10,2015-07-29 12:05:00,
2015-07-29 08:20:00,81.7,78.0,29.97,SSW,209,1.0,7.0,89,0.00,,,0.00,weatherlink.com 1.10,2015-07-29 12:20:00,
2015-07-29 08:35:00,82.1,78.0,29.97,SSW,208,6.0,7.0,88,0.00,,,0.00,weatherlink.com 1.10,2015-07-29 12:35:00,
2015-07-29 08:50:00,82.7,79.0,29.97,SSW,203,8.0,8.0,87,0.00,,,0.00,weatherlink.com 1.10,2015-07-29 12:50:00,
2015-07-29 09:05:00,83.6,79.0,29.97,SSW,198,3.0,6.0,85,0.00,,,0.00,weatherlink.com 1.10,2015-07-29 13:05:00,
2015-07-29 09:20:00,84.4,79.0,29.98,SSW,193,4.0,7.0,83,0.00,,,0.00,weatherlink.com 1.10,2015-07-29 13:20:00,
2015-07-29 09:35:00,85.3,79.0,29.98,SW,223,5.0,11.0,80,0.00,,,0.00,weatherlink.com 1.10,2015-07-29 13:35:00,
2015-07-29 09:50:00,86.0,78.0,29.98,SW,231,8.0,9.0,77,0.00,,,0.00,weatherlink.com 1.10,2015-07-29 13:50:00,
2015-07-29 10:05:00,86.3,78.0,29.98,SW,228,7.0,10.0,76,0.00,,,0.00,weatherlink.com 1.10,2015-07-29 14:05:00,
2015-07-29 10:20:00,86.8,78.0,29.98,SW,224,6.0,14.0,74,0.00,,,0.00,weatherlink.com 1.10,2015-07-29 14:20:00,
2015-07-29 10:35:00,87.4,78.0,29.99,WSW,237,6.0,12.0,74,0.00,,,0.00,weatherlink.com 1.10,2015-07-29 14:35:00,
2015-07-29 10:50:00,88.4,79.0,29.99,WSW,239,5.0,12.0,73,0.00,,,0.00,weatherlink.com 1.10,2015-07-29 14:50:00,
2015-07-29 11:05:00,89.4,78.0,29.98,SW,229,11.0,13.0,70,0.00,,,0.00,weatherlink.com 1.10,2015-07-29 15:05:00,
2015-07-29 11:20:00,89.8,78.0,29.98,West,273,3.0,11.0,69,0.00,,,0.00,weatherlink.com 1.10,2015-07-29 15:20:00,
2015-07-29 11:35:00,90.9,79.0,29.98,SW,222,6.0,13.0,67,0.00,,,0.00,weatherlink.com 1.10,2015-07-29 15:35:00,
2015-07-29 11:50:00,91.7,77.0,29.98,WSW,253,5.0,14.0,62,0.00,,,0.00,weatherlink.com 1.10,2015-07-29 15:50:00,
2015-07-29 12:05:00,91.4,76.0,29.98,WSW,251,5.0,14.0,61,0.00,,,0.00,weatherlink.com 1.10,2015-07-29 16:05:00,
2015-07-29 12:20:00,92.6,77.0,29.98,SW,236,10.0,13.0,61,0.00,,,0.00,weatherlink.com 1.10,2015-07-29 16:20:00,
2015-07-29 12:35:00,94.9,78.0,29.98,SW,228,6.0,14.0,58,0.00,,,0.00,weatherlink.com 1.10,2015-07-29 16:35:00,
2015-07-29 12:50:00,95.4,77.0,29.98,WSW,255,8.0,15.0,56,0.00,,,0.00,weatherlink.com 1.10,2015-07-29 16:50:00,
2015-07-29 13:05:00,95.6,77.0,29.98,SW,224,10.0,14.0,55,0.00,,,0.00,weatherlink.com 1.10,2015-07-29 17:05:00,
2015-07-29 13:20:00,96.0,76.0,29.98,SW,222,8.0,14.0,53,0.00,,,0.00,weatherlink.com 1.10,2015-07-29 17:20:00,
2015-07-29 13:35:00,96.0,76.0,29.98,WSW,240,9.0,18.0,53,0.00,,,0.00,weatherlink.com 1.10,2015-07-29 17:35:00,
2015-07-29 13:50:00,94.8,76.0,29.98,WSW,243,9.0,13.0,54,0.00,,,0.00,weatherlink.com 1.10,2015-07-29 17:50:00,
2015-07-29 14:05:00,95.0,75.0,29.98,West,274,10.0,14.0,52,0.00,,,0.00,weatherlink.com 1.10,2015-07-29 18:05:00,
2015-07-29 14:20:00,93.5,75.0,29.98,WNW,287,8.0,20.0,55,0.00,,,0.00,weatherlink.com 1.10,2015-07-29 18:20:00,
2015-07-29 14:35:00,92.0,76.0,29.98,WNW,291,12.0,16.0,60,0.00,,,0.00,weatherlink.com 1.10,2015-07-29 18:35:00,
2015-07-29 14:50:00,90.4,75.0,29.99,NNW,347,10.0,16.0,60,0.00,,,0.00,weatherlink.com 1.10,2015-07-29 18:50:00,
2015-07-29 15:05:00,89.9,75.0,29.97,NW,322,4.0,13.0,62,0.00,,,0.00,weatherlink.com 1.10,2015-07-29 19:05:00,
2015-07-29 15:20:00,88.6,75.0,29.98,NW,321,7.0,12.0,65,0.00,,,0.00,weatherlink.com 1.10,2015-07-29 19:20:00,
2015-07-29 15:35:00,87.6,74.0,29.97,West,271,6.0,11.0,65,0.00,,,0.00,weatherlink.com 1.10,2015-07-29 19:35:00,
2015-07-29 15:50:00,86.6,75.0,29.97,WNW,282,1.0,10.0,69,0.00,,,0.00,weatherlink.com 1.10,2015-07-29 19:50:00,
2015-07-29 16:05:00,86.3,75.0,29.97,WSW,257,6.0,11.0,70,0.00,,,0.00,weatherlink.com 1.10,2015-07-29 20:05:00,
2015-07-29 16:20:00,85.9,76.0,29.96,WNW,299,8.0,10.0,72,0.00,,,0.00,weatherlink.com 1.10,2015-07-29 20:20:00,
2015-07-29 16:35:00,85.9,76.0,29.96,NW,313,2.0,10.0,72,0.00,,,0.00,weatherlink.com 1.10,2015-07-29 20:35:00,
2015-07-29 16:50:00,85.5,76.0,29.96,WSW,249,5.0,10.0,72,0.00,,,0.00,weatherlink.com 1.10,2015-07-29 20:50:00,
2015-07-29 17:05:00,85.5,76.0,29.96,West,269,3.0,4.0,72,0.00,,,0.00,weatherlink.com 1.10,2015-07-29 21:05:00,
2015-07-29 17:20:00,85.3,75.0,29.96,West,271,4.0,6.0,72,0.00,,,0.00,weatherlink.com 1.10,2015-07-29 21:20:00,